Regional Weather Roundup
Issued by NWS

Home | Current Version | Previous Version | Text Only | Print | Product List | Glossary On
Versions: 1 2 3 4 5 6 7 8 9 10 11 12 13 14 15 16 17 18 19 20 21 22 23 24 25 26 27 28 29 30 31 32 33 34 35 36 37 38 39 40 41 42 43 44 45 46 47 48 49 50
000
ASUS46 KPQR 031810
RWROR

OREGON REGIONAL WEATHER ROUNDUP
NATIONAL WEATHER SERVICE PORTLAND OR
1100 AM PDT MON AUG 03 2015

NOTE: "FAIR" INDICATES FEW OR NO CLOUDS BELOW 12,000 FEET WITH
NO SIGNIFICANT WEATHER AND/OR OBSTRUCTIONS TO VISIBILITY.

ORZ001>013-031900-
NORTHWEST OREGON


CITY           SKY/WX    TMP DP  RH WIND       PRES   REMARKS
ASTORIA        CLOUDY    63  57  81 NW14      29.98F
6HR MIN TEMP:  59; 6HR MAX TEMP:  65;

NEWPORT        LGT RAIN  57  55  94 CALM      30.00S
PORTLAND       PTSUNNY   68  55  63 NW3       29.95R
6HR MIN TEMP:  67; 6HR MAX TEMP:  69; 6HR PCP: TRACE;

VANCOUVER WA   PTSUNNY   67  54  63 NW5       29.94S
6HR MIN TEMP:  65; 6HR MAX TEMP:  68; 6HR PCP: TRACE;

SCAPPOOSE      PTSUNNY   67  54  63 CALM      29.94R
6HR MIN TEMP:  61; 6HR MAX TEMP:  68;

HILLSBORO      MOSUNNY   73  53  49 N6        29.93S
6HR MIN TEMP:  60; 6HR MAX TEMP:  73;

AURORA         PTSUNNY   74  54  49 NE6       29.95R
6HR MIN TEMP:  63; 6HR MAX TEMP:  74;

MCMINNVILLE    MOSUNNY   77  50  38 CALM      29.94S
6HR MIN TEMP:  61; 6HR MAX TEMP:  77;

SALEM          PTSUNNY   77  55  46 N5        29.93S
6HR MIN TEMP:  66; 6HR MAX TEMP:  77;

CORVALLIS      CLOUDY    72  57  60 S3        29.96S
EUGENE         CLOUDY    71  58  63 W3        29.95S
6HR MIN TEMP:  62; 6HR MAX TEMP:  71;

$$

ORZ021-028-031900-
SOUTHWEST OREGON


CITY           SKY/WX    TMP DP  RH WIND       PRES   REMARKS
NORTH BEND     CLOUDY    63  59  88 SE5       29.98R
6HR MIN TEMP:  55; 6HR MAX TEMP:  63;

BROOKINGS      CLOUDY    60  60 100 CALM      29.99R
ROSEBURG       MOSUNNY   75  59  57 CALM      29.93S
6HR MIN TEMP:  63; 6HR MAX TEMP:  75;

SEXTON SUMMIT  HAZE      71  55  56 CALM      30.04R VSB 1/2
6HR MIN TEMP:  64; 6HR MAX TEMP:  72;

MEDFORD        HAZE      77  58  51 CALM      29.92S VSB 3/4
6HR MIN TEMP:  64; 6HR MAX TEMP:  77;

$$

ORZ014>016-041-031900-
COLUMBIA GORGE


CITY           SKY/WX    TMP DP  RH WIND       PRES   REMARKS
TROUTDALE      CLOUDY    69  55  60 CALM      29.94R
6HR MIN TEMP:  66; 6HR MAX TEMP:  70;

THE DALLES     CLOUDY    79  49  34 NW15G22   29.84R
6HR MIN TEMP:  76; 6HR MAX TEMP:  80;

$$

ORZ029>031-041-044-049-050-061>064-502-503-505>511-031900-
EASTERN OREGON


CITY           SKY/WX    TMP DP  RH WIND       PRES   REMARKS
REDMOND        LGT RAIN  74  54  49 W3        30.00S
6HR MIN TEMP:  66; 6HR MAX TEMP:  75; 6HR PCP:  0.01;

BEND           CLOUDY    77  45  31 CALM      30.02S
PRINEVILLE     CLOUDY    79  46  31 CALM      30.00F
KLAMATH FALLS  SUNNY     77  50  38 VRB5      30.05F
6HR MIN TEMP:  54; 6HR MAX TEMP:  77;

LAKEVIEW       SUNNY     73  50  43 CALM      30.09S
HERMISTON      CLOUDY    83  48  29 W9        29.79S
6HR MIN TEMP:  63; 6HR MAX TEMP:  83;

PENDLETON      CLOUDY    86  37  17 W12G21    29.84S
6HR MIN TEMP:  65; 6HR MAX TEMP:  86;

JOHN DAY       CLOUDY    76  40  27 W6        30.01F
MEACHAM        CLOUDY    77  38  24 VRB5      29.98R
6HR MIN TEMP:  49; 6HR MAX TEMP:  77;

LA GRANDE      CLOUDY    84  41  21 NW15      29.91R
6HR MIN TEMP:  72; 6HR MAX TEMP:  84;

BAKER CITY     NOT AVBL
BURNS          PTSUNNY   82  40  22 W9G18     30.02F
6HR MIN TEMP:  67; 6HR MAX TEMP:  82; 6HR PCP: TRACE;

ROME             N/A     84  45  25 SW15G23   30.00R
6HR MIN TEMP:  71; 6HR MAX TEMP:  85;

ONTARIO        CLOUDY    90  41  18 SW7       29.89R
6HR MIN TEMP:  73; 6HR MAX TEMP:  91;

$$



USA.gov is the U.S. government's official web portal to all federal, state and local government web resources and services.